Weather Roundup
Issued by NWS Springfield, MO

Home | Current Version | Previous Version | Text Only | Print | Product List | Glossary On
Versions: 1 2 3 4 5 6 7 8 9 10 11 12 13 14 15 16 17 18 19 20 21 22 23 24 25 26 27 28 29 30 31 32 33 34 35 36 37 38 39 40 41 42 43 44 45 46 47 48 49 50
000
NZUS99 KSGF 280157
HRRSGF

HOURLY WEATHER
NATIONAL WEATHER SERVICE SPRINGFIELD MO
900 PM CDT WED JUL 27 2016

......SGF CWA......

CITY           SKY/WX    TMP DP  RH WIND       PRES   REMARKS
SPRINGFIELD    CLOUDY    77  72  84 CALM      29.93F
JOPLIN         PTCLDY    76  71  85 S6        29.93S
WEST PLAINS    CLOUDY    73  70  90 S3        29.95F
ROLLA          MOCLDY    78  73  84 S9        29.91S
BRANSON        PTCLDY    77  73  88 S7        29.96S

......SURROUNDING SGF CWA......

CITY           SKY/WX    TMP DP  RH WIND       PRES   REMARKS
CHANUTE        CLOUDY    83  77  82 CALM      29.91S HX  92
PARSONS        CLOUDY    81  76  84 MISG      29.93R
COFFEYVILLE    PTCLDY    83  74  74 S3        29.91R
EMPORIA        CLEAR     83  74  74 E3        29.94R
HARRISON AR    TSTM      75  69  81 SE8       29.96F

......KANSAS AND MISSOURI......

CITY           SKY/WX    TMP DP  RH WIND       PRES   REMARKS
KANSAS CTY INT PTCLDY    81  71  71 NW3       29.93R
SEDALIA        PTCLDY    84  74  71 CALM      29.92R HX  91
ST JOSEPH      CLEAR     80  74  81 CALM      29.92R
ST LOUIS       MOCLDY    85  72  65 S3        29.90F HX  91
WICHITA        PTCLDY    86  70  58 E8        29.94R HX  90
TOPEKA           N/A     80  73  79 MISG      29.92R
OLATHE         CLEAR     84  68  58 N5        29.93R

......TENNESSEE......

CITY           SKY/WX    TMP DP  RH WIND       PRES   REMARKS
MEMPHIS        NOT AVBL
NASHVILLE      CLOUDY    86  70  58 S7        29.92S HX  90

......ARKANSAS.......

CITY           SKY/WX    TMP DP  RH WIND       PRES   REMARKS
FAYETTEVILLE   CLOUDY    77  72  84 SE6G16    29.96S
FT SMITH       CLOUDY    82  72  71 S5        29.93R
LITTLE ROCK    MOCLDY    80  73  79 CALM      29.92R

......OKLAHOMA.......

CITY           SKY/WX    TMP DP  RH WIND       PRES   REMARKS
TULSA          MOCLDY    81  75  82 SE5       29.89F
PONCA CITY     CLEAR     83  69  62 SE7       29.92R
MCALESTER      MOCLDY    80  74  81 VRB3      29.93R
OKLAHOMA CITY  CLOUDY    77  72  84 CALM      29.93R

......IOWA............

CITY           SKY/WX    TMP DP  RH WIND       PRES   REMARKS
DES MOINES     NOT AVBL
QUAD CITIES    CLOUDY    79  71  76 CALM      29.92R

......ILLINOIS........

CITY           SKY/WX    TMP DP  RH WIND       PRES   REMARKS
QUINCY         TSTM      78  75  90 N12       29.92R
CHICAGO        CLOUDY    80  62  54 SE8       29.94R




USA.gov is the U.S. government's official web portal to all federal, state and local government web resources and services.